Probability
0 0 0 0 0 0 0 0 0 0 0 0 0 0 0 0 0 0 0 0 0 0 0 0 0 0 0 0 0 0 0 0 0 0 0 0 0 0 0 0 0 0 0
0 0 0 0 0 0 0 0 0 0 0 0 0 0 0 0 0 0 0 0 0 0 0 0 0 0 0 0 0 0 0 0 0 0 0 0 0 0 0 0 0 0 0
0 0 0 0 0 0 0 0 0 0 0 0 0 0 0 0 0 0 0 0 0 0 0 0 0 0 0 0 0 0 0 0 0 0 0 0 0 0 0 0 0 0 0
1 0 0 0 0 0 0 0 0 0 0 0 0 0 0 0 0 0 0 0 0 0 0 0 0 0 0 0 0 0 0 0 0 0 0 0 0 0 0 0 0 0 0
2 1 0 0 0 0 0 0 0 0 0 0 0 0 0 0 0 0 0 0 0 0 0 0 0 0 0 0 0 0 0 0 0 0 0 0 0 0 0 0 0 0 0
4 3 1 0 0 0 0 0 0 0 0 0 0 0 0 0 0 0 0 0 0 0 0 0 0 0 0 0 0 0 0 0 0 0 0 0 0 0 0 0 0 0 0
6 5 3 1 0 0 0 0 0 0 0 0 0 0 0 0 0 0 0 0 0 0 0 0 0 0 0 0 0 0 0 0 0 0 0 0 0 0 0 0 0 0 0
7 7 4 1 0 0 0 0 0 0 0 0 0 0 0 0 0 0 0 0 0 0 0 0 0 0 0 0 0 0 0 0 0 0 0 0 0 0 0 0 0 0 0
9 8 6 3 1 0 0 0 0 0 0 0 0 0 0 0 0 0 0 0 0 0 0 0 0 0 0 0 0 0 0 0 0 0 0 0 0 0 0 0 0 0 0
10 8 6 4 2 0 0 0 0 0 0 0 0 0 0 0 0 0 0 0 0 0 0 0 0 0 0 0 0 0 0 0 0 0 0 0 0 0 0 0 0 0 0
6 5 4 3 1 0 0 0 0 0 0 0 0 0 0 0 0 0 0 0 0 0 0 0 0 0 0 0 0 0 0 0 0 0 0 0 0 0 0 0 0 0 0
1 1 1 1 0 0 0 0 0 0 0 0 0 0 0 0 0 0 0 0 0 0 0 0 0 0 0 0 0 0 0 0 0 0 0 0 0 0 0 0 0 0 0
0 0 0 0 0 0 0 0 0 0 0 0 0 0 0 0 0 0 0 0 0 0 0 0 0 0 0 0 0 0 0 0 0 0 0 0 0 0 0 0 0 0 0
0 0 0 0 0 0 0 0 0 0 0 0 0 0 0 0 0 0 0 0 0 0 0 0 0 0 0 0 0 0 0 0 0 0 0 0 0 0 0 0 0 0 0
0 0 0 0 0 0 0 0 0 0 0 0 0 0 0 0 0 0 0 0 0 0 0 0 0 0 0 0 0 0 0 0 0 0 0 0 0 0 0 0 0 0 0
0 0 0 0 0 0 0 0 0 0 0 0 0 0 0 0 0 0 0 0 0 0 0 0 0 0 0 0 0 0 0 0 0 0 0 0 0 0 0 0 0 0 0
0 0 0 0 0 0 0 0 0 0 0 0 0 0 0 0 0 0 0 0 0 0 0 0 0 0 0 0 0 0 0 0 0 0 0 0 0 0 0 0 0 0 0
0 0 0 0 0 0 0 0 0 0 0 0 0 0 0 0 0 0 0 0 0 0 0 0 0 0 0 0 0 0 0 0 0 0 0 0 0 0 0 0 0 0 0
0 0 0 0 0 0 0 0 0 0 0 0 0 0 0 0 0 0 0 0 0 0 0 0 0 0 0 0 0 0 0 0 0 0 0 0 0 0 0 0 0 0 0
0 0 0 0 0 0 0 0 0 0 0 0 0 0 0 0 0 0 0 0 0 0 0 0 0 0 0 0 0 0 0 0 0 0 0 0 0 0 0 0 0 0 0
0 0 0 0 0 0 0 0 0 0 0 0 0 0 0 0 0 0 0 0 0 0 0 0 0 0 0 0 0 0 0 0 0 0 0 0 0 0 0 0 0 0 0
0 0 0 0 0 0 0 0 0 0 0 0 0 0 0 0 0 0 0 0 0 0 0 0 0 0 0 0 0 0 0 0 0 0 0 0 0 0 0 0 0 0 0
0 0 0 0 0 0 0 0 0 0 0 0 0 0 0 0 0 0 0 0 0 0 0 0 0 0 0 0 0 0 0 0 0 0 0 0 0 0 0 0 0 0 0
0 0 0 0 0 0 0 0 0 0 0 0 0 0 0 0 0 0 0 0 0 0 0 0 0 0 0 0 0 0 0 0 0 0 0 0 0 0 0 0 0 0 0
0 0 0 0 0 0 0 0 0 0 0 0 0 0 0 0 0 0 0 0 0 0 0 0 0 0 0 0 0 0 0 0 0 0 0 0 0 0 0 0 0 0 0
0 0 0 0 0 0 0 0 0 0 0 0 0 0 0 0 0 0 0 0 0 0 0 0 0 0 0 0 0 0 0 0 0 0 0 0 0 0 0 0 0 0 0
Wind_Speed
4 4 3 3 3 2 2 2 2 2 2 2 2 3 3 3 2 2 1 4 3 3 4 4 4 3 3 3 2 3 3 4 5 5 5 6 6 6 5 5 4 3 3
5 4 4 4 4 3 3 3 3 2 2 2 3 3 4 4 3 3 2 2 3 3 3 4 4 4 3 3 3 3 4 4 5 5 5 5 6 6 5 5 4 3 3
6 5 4 4 4 4 4 3 2 2 2 2 3 2 2 3 3 3 2 2 2 3 3 4 4 4 4 4 3 3 3 4 4 5 5 5 5 5 5 5 5 5 4
8 6 5 5 4 4 4 3 3 2 2 2 2 1 1 2 3 3 2 2 2 1 2 3 3 3 3 3 3 3 3 4 4 5 5 5 5 5 5 5 5 5 5
9 7 6 5 4 4 4 4 3 3 3 3 3 2 1 2 3 3 3 4 3 2 1 2 2 2 2 3 3 3 3 4 4 4 5 5 5 5 5 5 5 5 5
8 7 5 5 4 4 4 4 3 3 3 3 2 2 1 2 2 3 4 3 3 3 3 2 1 1 2 2 2 3 3 3 3 3 3 4 4 4 4 4 4 4 4
7 7 5 4 4 5 5 5 3 3 2 2 3 1 1 1 2 3 3 3 4 4 3 3 2 1 1 2 2 3 3 3 3 3 2 2 2 2 2 1 2 2 2
7 6 6 4 4 4 3 4 3 3 2 3 3 3 1 2 2 1 2 3 4 3 4 4 3 3 2 1 2 3 2 2 3 3 2 2 2 2 1 1 1 1 1
7 6 7 5 5 4 4 4 4 4 3 2 2 4 4 4 2 2 1 2 2 3 3 3 4 4 4 3 2 3 4 3 4 4 3 3 3 2 2 1 1 1 1
6 7 7 8 7 6 6 6 5 3 3 3 1 1 1 3 3 1 1 1 1 3 3 3 4 4 4 3 4 5 6 5 6 6 5 4 3 3 2 2 2 1 2
4 6 7 7 7 6 7 7 6 6 4 4 3 2 1 1 1 2 1 1 1 1 2 3 3 4 5 5 4 6 8 7 7 7 6 5 5 4 3 3 3 3 2
2 3 4 5 5 5 6 7 7 7 6 5 4 3 3 3 3 3 3 2 1 2 1 2 3 3 4 5 7 9 9 8 8 7 6 6 5 5 4 4 4 3 3
1 2 2 3 3 4 5 5 6 6 7 6 6 4 4 3 3 3 3 2 1 1 2 2 2 3 3 3 5 8 9 10 9 8 7 6 5 5 6 5 5 5 5
2 2 2 2 2 3 3 4 3 4 4 5 6 5 3 3 3 3 3 3 2 1 2 3 1 2 2 2 4 7 5 9 10 9 8 7 6 6 6 6 6 6 6
2 3 3 3 2 3 3 3 2 3 3 3 3 4 3 3 3 3 3 3 4 3 2 2 2 1 1 2 3 4 4 7 9 9 9 8 7 7 7 7 6 5 5
3 3 3 3 3 3 3 3 2 2 3 2 2 3 3 2 3 3 3 2 3 4 3 2 2 1 1 1 3 3 4 7 7 8 8 8 8 8 8 7 7 7 6
3 3 3 3 3 3 2 2 2 2 3 2 2 2 2 3 3 3 3 3 3 3 3 2 1 1 1 1 1 0 1 2 2 6 7 8 8 8 9 9 9 9 8
4 3 3 3 3 3 2 2 2 2 2 1 1 1 2 2 3 3 3 3 3 3 3 2 1 1 1 1 1 0 0 1 2 4 5 6 7 7 8 9 9 10 9
7 6 6 5 4 4 3 2 1 1 1 2 2 3 3 3 3 2 3 3 3 3 2 2 1 0 1 1 1 2 2 1 0 0 1 2 3 4 5 6 7 8 8
8 8 7 6 5 4 4 3 2 1 0 1 2 3 4 4 4 4 3 3 3 3 2 2 1 0 0 1 1 1 2 2 2 2 3 3 4 4 4 3 3 4 6
9 8 8 8 6 5 5 4 2 1 1 1 1 1 3 4 5 5 3 4 4 3 3 2 2 1 1 1 1 1 2 2 3 3 2 3 3 4 5 6 6 5 3
8 8 9 8 8 7 10 9 4 2 2 2 2 1 1 2 4 5 6 7 6 5 4 3 2 2 1 1 1 1 2 2 2 3 2 3 3 4 4 5 8 8 7
7 8 8 8 8 10 14 11 9 4 3 3 2 2 1 2 4 4 5 7 5 5 5 5 4 2 2 2 3 2 2 3 2 2 2 3 3 4 4 6 11 12 11
6 6 7 8 8 11 16 13 10 5 4 4 3 2 1 2 3 5 5 5 5 4 4 4 4 3 2 3 3 3 4 4 3 3 2 3 3 3 4 5 13 14 13
6 6 6 8 8 10 15 14 10 4 4 5 5 5 4 3 4 6 6 6 5 4 6 8 7 7 7 7 5 4 3 3 3 3 3 3 2 2 3 5 8 13 14
5 5 6 6 7 8 14 15 11 3 4 4 4 5 6 5 4 5 5 6 6 4 4 5 6 8 7 8 8 4 3 3 3 2 2 2 1 1 3 3 5 7 8
Wind_Direction
193 194 197 198 200 192 197 207 216 240 260 266 256 244 238 227 220 222 282 290 274 257 235 210 197 191 187 183 186 188 183 179 176 173 172 169 163 158 154 153 151 145 134
194 196 202 205 204 198 200 203 210 228 258 268 268 245 227 213 213 217 239 289 276 263 266 243 220 205 204 204 205 210 200 190 188 188 187 185 179 176 177 181 185 185 184
199 198 203 210 208 194 193 194 205 212 248 251 251 236 212 205 201 213 230 249 271 262 260 260 255 229 219 219 217 213 208 199 196 200 198 195 193 197 201 204 209 209 206
203 198 206 218 204 182 180 185 188 203 229 224 215 213 195 201 211 218 227 239 246 254 272 274 275 252 237 232 226 216 212 203 204 208 208 204 205 211 218 220 223 222 219
204 201 210 217 197 184 185 194 179 183 200 204 198 191 208 214 216 218 225 235 238 233 236 282 278 256 249 238 229 222 210 199 206 211 210 206 207 214 224 231 233 229 226
202 200 208 211 196 193 194 188 185 184 190 184 176 153 221 231 216 218 224 226 231 232 221 231 255 270 254 237 232 225 202 195 200 205 204 202 205 216 232 240 234 230 232
193 194 204 198 194 206 210 192 173 181 179 142 117 115 298 255 231 233 223 221 226 224 213 216 212 216 258 250 235 223 205 195 191 191 188 176 169 187 211 229 234 241 241
184 191 196 193 188 196 197 183 175 167 167 160 146 136 222 312 278 237 229 222 224 210 216 215 209 213 218 218 233 237 221 208 208 205 199 180 165 177 196 226 233 242 244
181 178 179 176 177 182 189 184 185 178 175 184 170 152 161 213 258 293 264 240 219 209 221 213 215 216 215 213 220 235 225 219 228 222 213 202 187 185 183 183 209 190 159
176 174 172 170 172 177 183 187 184 183 173 184 188 171 154 155 162 253 310 303 257 222 224 221 218 217 213 212 216 219 222 221 231 233 229 219 205 200 196 206 209 174 145
176 172 172 168 173 180 185 186 185 189 189 190 179 161 145 125 137 157 228 293 322 275 237 226 221 218 214 212 214 221 221 220 224 235 237 230 221 214 210 201 190 176 169
128 151 167 164 173 184 189 192 190 191 195 195 190 179 172 174 183 174 193 216 255 291 287 251 231 225 217 211 220 221 219 217 219 229 235 236 232 229 221 209 204 209 216
80 125 146 160 175 185 190 192 193 196 195 194 195 198 194 186 166 163 170 182 218 280 304 278 246 236 227 210 220 221 221 216 217 224 230 230 229 233 237 238 235 238 240
53 74 110 135 147 157 170 176 182 185 181 187 191 182 180 184 172 168 165 155 168 260 285 273 286 249 243 219 223 217 222 220 218 223 228 228 229 232 238 246 252 260 265
51 68 84 93 105 121 129 137 145 158 157 172 180 180 180 182 180 178 166 164 164 190 246 264 268 284 255 229 224 206 214 225 224 224 227 227 230 235 240 243 248 255 259
47 62 76 86 88 93 108 119 127 128 133 142 156 169 177 177 176 175 180 181 170 166 209 246 248 259 273 246 216 205 217 228 233 230 227 228 233 237 241 243 245 246 246
45 57 65 75 82 89 100 109 120 126 122 129 142 160 190 184 175 173 172 169 168 159 194 248 271 297 310 320 12 177 201 202 228 234 231 233 238 241 244 244 244 243 241
36 46 60 68 64 64 70 87 102 106 124 155 176 177 212 194 183 174 170 172 170 171 175 208 265 320 333 354 16 63 123 180 208 236 235 240 246 250 253 251 249 246 244
35 39 47 50 47 47 49 50 85 114 156 180 195 201 202 185 190 179 175 169 165 164 161 162 193 358 0 22 52 56 66 50 46 258 249 273 280 278 273 266 259 255 253
39 38 38 37 34 37 36 25 39 54 103 219 211 203 196 189 190 181 173 165 151 142 140 146 156 125 46 24 74 78 65 48 34 31 39 33 23 19 4 341 309 281 269
38 34 36 31 24 26 24 17 7 8 339 297 268 216 208 201 191 176 165 160 148 138 136 138 135 113 87 76 88 93 96 84 55 28 39 32 33 39 30 20 18 10 351
29 33 30 26 25 22 22 29 26 14 6 345 327 323 263 202 188 173 164 158 154 149 152 144 139 142 152 145 116 97 110 105 75 16 49 40 36 47 34 28 27 35 37
28 31 25 22 18 13 24 28 33 32 26 17 355 337 331 106 126 123 128 121 121 137 148 148 144 159 158 163 137 107 93 94 91 12 56 57 28 46 33 33 39 45 45
26 25 23 19 16 14 21 26 31 32 34 32 25 16 35 72 104 126 117 104 89 77 103 112 124 130 128 129 127 123 119 102 82 36 45 79 30 39 32 33 38 47 47
30 25 19 19 17 8 15 23 28 19 30 28 27 36 49 61 90 122 122 117 103 82 82 97 99 99 99 102 111 104 99 94 75 33 24 86 53 45 43 34 31 41 46
27 19 20 17 15 9 11 19 23 21 23 18 21 24 34 45 72 115 127 131 130 124 112 92 78 69 68 68 68 79 109 108 107 76 17 76 71 74 81 37 29 31 39